This is the latest recevied weather packets stored in our database for station/object KEFK. If no packets are shown the sender has not sent any weather packets the latest 1 day(s).
| Time | Temp. | Humidity | Pressure | Rain* | Wind** | Luminosity | Snow |
|---|---|---|---|---|---|---|---|
| 1777983803 | 15° C | 51% | 1004.7 hPa | - | 2.68 m/s, 190° | - | - |
| 1777983203 | 15° C | 54% | 1004.7 hPa | - | 3.58 m/s, 200° | - | - |
| 1777982608 | 15° C | 54% | 1004.7 hPa | - | 3.58 m/s, 200° | - | - |
| 1777982004 | 12.78° C | 58% | 1005.1 hPa | - | 3.58 m/s, 200° | - | - |
| 1777981410 | 12.78° C | 58% | 1005.1 hPa | - | 3.58 m/s, 200° | - | - |
| 1777980808 | 11.67° C | 62% | 1004.7 hPa | - | 2.68 m/s, 190° | - | - |
| 1777980209 | 11.67° C | 62% | 1004.7 hPa | - | 2.68 m/s, 190° | - | - |
| 1777979610 | 11.67° C | 58% | 1004.7 hPa | - | 3.58 m/s, 170° | - | - |
| 1777979008 | 11.67° C | 58% | 1004.7 hPa | - | 3.58 m/s, 170° | - | - |
| 1777978411 | 10.56° C | 62% | 1005.1 hPa | - | 2.68 m/s, 210° | - | - |
| 1777977808 | 10.56° C | 62% | 1005.1 hPa | - | 2.68 m/s, 210° | - | - |
| 1777977208 | 11.67° C | 58% | 1004.7 hPa | - | 2.68 m/s, 190° | - | - |
| 1777976606 | 11.67° C | 58% | 1004.7 hPa | - | 2.68 m/s, 190° | - | - |
| 1777976008 | 10.56° C | 62% | 1004.7 hPa | - | 2.24 m/s, 200° | - | - |
| 1777975407 | 10.56° C | 57% | 1004.7 hPa | - | 1.79 m/s, 190° | - | - |
| 1777974807 | 10.56° C | 57% | 1004.7 hPa | - | 1.79 m/s, 190° | - | - |
| 1777974208 | 10.56° C | 57% | 1004.7 hPa | - | 1.79 m/s, 190° | - | - |
| 1777973608 | 11.67° C | 54% | 1004.7 hPa | - | 2.68 m/s, 180° | - | - |
| 1777973010 | 11.67° C | 54% | 1004.7 hPa | - | 2.68 m/s, 180° | - | - |
| 1777972408 | 10.56° C | 57% | 1005.1 hPa | - | 3.58 m/s, 190° | - | - |
| 1777971810 | 10.56° C | 57% | 1005.1 hPa | - | 3.58 m/s, 190° | - | - |
| 1777971212 | 10.56° C | 57% | 1005.1 hPa | - | 2.24 m/s, 180° | - | - |
* Rain since midnight (hover to see other rain measurements)
** Current wind speed in m/s (hover to see current wind gust speed)